Home   Weather   Post Falls   Past weeks
Flag for USA

Past Weather in Post Falls, Idaho, USA — Yesterday and Last 2 Weeks

Now
49 °F

Clear.


Feels Like: 47 °F
Forecast: 74 / 48 °F
Wind: 5 mph from West

Location: Coeur d'Alene Weather Reporting System

Current Time: Jul 19, 2019 at 5:23:29 am

Latest Report: Jul 19, 2019 at 3:56 am


Visibility: 10 mi

Pressure: 29.94 "Hg (27.63 "Hg at 664m altitude)

Humidity: 61%

Dew Point: 36 °F

Location of Post FallsLocation

Past Weather in Post Falls — Graph

°F

Post Falls Temperature Yesterday

Maximum temperature yesterday: 76 °F (at 3:56 pm)
Minimum temperature yesterday: 53 °F (at 11:56 pm)
Average temperature yesterday: 65 °F

High & Low Weather Summary for the Past Weeks

 TemperatureHumidityPressure
High86 °F (Jul 13, 2:56 pm)93% (Jul 5, 4:56 am)30.14 "Hg (Jul 5, 4:56 am)
Low48 °F (Jul 8, 4:56 am)18% (Jul 18, 3:56 pm)29.82 "Hg (Jul 17, 11:56 pm)
Average68 °F57%29.99 "Hg
* Reported Jul 4 3:56 am — Jul 19 3:56 am, Post Falls. Weather by CustomWeather, © 2019

Note: Actual official high and low records may vary slightly from our data, if they occured in-between our weather recording intervals... More about our weather records

Advertising

Post Falls Weather History for the Previous 24 Hours

Scroll right to see more
 ConditionsComfort  
Time TempWeatherWind HumidityBarometerVisibility
3:56 am
Fri, Jul 19
49 °FClear.5 mph61%29.94 "Hg10 mi
2:56 am50 °FClear.3 mph63%29.92 "Hg10 mi
1:56 am56 °FClear.8 mph58%29.89 "Hg10 mi
12:56 am57 °FClear.8 mph55%29.89 "Hg10 mi
11:56 pm
Thu, Jul 18
53 °FClear.7 mph52%29.90 "Hg10 mi
10:56 pm57 °FClear.No wind44%29.90 "Hg10 mi
9:56 pm58 °FClear.3 mph38%29.90 "Hg10 mi
8:56 pm61 °FClear.5 mph34%29.89 "Hg10 mi
7:56 pm69 °FSunny.10 mph21%29.86 "Hg10 mi
6:56 pm72 °FSunny.10 mph23%29.86 "Hg10 mi
5:56 pm75 °FSunny.16 mph18%29.85 "Hg10 mi
4:56 pm75 °FSunny.23 mph18%29.86 "Hg10 mi
3:56 pm76 °FSunny.22 mph18%29.86 "Hg10 mi
2:56 pm75 °FSunny.17 mph25%29.86 "Hg10 mi
1:56 pm74 °FSunny.24 mph28%29.86 "Hg10 mi
12:56 pm72 °FSunny.21 mph33%29.86 "Hg10 mi
11:56 am71 °FPassing clouds.17 mph34%29.86 "Hg10 mi
10:56 am69 °FPartly sunny.24 mph47%29.87 "Hg10 mi
9:56 am64 °FBroken clouds.16 mph61%29.88 "Hg10 mi
8:56 am62 °FPartly sunny.12 mph65%29.89 "Hg10 mi
7:56 am61 °FOvercast.14 mph72%29.88 "Hg10 mi
6:56 am59 °FOvercast.5 mph81%29.87 "Hg10 mi
6:10 am61 °FOvercast.6 mph72%29.85 "Hg10 mi
5:56 am60 °FMostly cloudy.6 mph75%29.85 "Hg10 mi
Weather by CustomWeather, © 2019

See weather overview